User: anonymous   Login
Location: Pian di Sc�
(43.6333°N, 11.5500°E)
Time: 07:33:59
(UTC+00:00)
Language:

Meteor 1-24 Rocket - Orbit

View from above orbital plane
View from above orbital plane
View from above satellite
View from above satellite

Ground track
Ground track

The orbit data is extracted from the following two-line orbital elements,

1  8800U 76032B   20296.05271261 -.00000155  00000-0 -90393-4 0  9998
2  8800  81.2479 107.6376 0094733 323.3040  36.1667 14.10152531290520
Epoch (UTC): 22 October 2020 01:15:54
Eccentricity: 0.0094733
inclination: 81.2479°
perigee height: 790 km
apogee height: 927 km
right ascension of ascending node: 107.6376°
argument of perigee: 323.3040°
revolutions per day: 14.10152531
mean anomaly at epoch: 36.1667°
orbit number at epoch: 29052

The dashed part of the orbit path shows where the satellite is in the earth's shadow,  

DLR